Regional Weather Roundup
Issued by NWS Cleveland, OH

Home | Current Version | Previous Version | Text Only | Print | Product List | Glossary Off
Versions: 1 2 3 4 5 6 7 8 9 10 11 12 13 14 15 16 17 18 19 20 21 22 23 24 25 26 27 28 29 30 31 32 33 34 35 36 37 38 39 40 41 42 43 44 45 46 47 48 49 50

052
ASUS41 KCLE 131112
RWRCLE
OHIO REGIONAL WEATHER ROUNDUP
NATIONAL WEATHER SERVICE WILMINGTON, OH
600 AM EST WED DEC 13 2017

NOTE: "FAIR" INDICATES FEW OR NO CLOUDS BELOW 12,000 FEET WITH NO
SIGNIFICANT WEATHER AND/OR OBSTRUCTIONS TO VISIBILITY.

OHZ001>008-015>018-024>027-034-035-043-044-131200-
   NORTHWEST OHIO

CITY           SKY/WX    TMP DP  RH WIND       PRES   REMARKS
DEFIANCE       CLOUDY    15   8  73 S5        29.86F WCI   8
FINDLAY        CLOUDY    17   9  70 SW8       29.87F WCI   7
TOLEDO EXPRESS CLOUDY    18  13  80 SW5       29.86F WCI  11
TOLEDO EXEC    CLOUDY    20  11  68 SW8       29.87F WCI  10
LIMA           CLOUDY    15  10  80 S5        29.86F WCI   8
$$

OHZ009>014-019>023-028>033-038-089-131200-
   NORTHEAST OHIO

CITY           SKY/WX    TMP DP  RH WIND       PRES   REMARKS
CLE-HOPKINS    LGT SNOW  17  12  80 SW14      29.87R WCI   3
CLE-LAKEFRONT  FLURRIES  21  10  62 W22G33    29.85R WCI   5
CUY CO. ARPT   NOT AVBL
LORAIN-ELYRIA  CLOUDY    17   4  56 W10       29.86S WCI   5
ASHTABULA      CLOUDY    17   7  64 NW13G22   29.80S WCI   4
AKRON-CANTON   CLOUDY    14   3  61 W8        29.83S WCI   3
WOOSTER        CLOUDY    16   6  65 W10       29.85S WCI   4
MANSFIELD      CLOUDY    17  10  74 SW7       29.84S WCI   8
YOUNGSTOWN     LGT SNOW  15  11  83 W12       29.79R FOG     WCI   2
$$

OHZ042-051>053-060>062-070>072-077>081-131200-
  SOUTHWEST OHIO

CITY           SKY/WX    TMP DP  RH WIND       PRES   REMARKS
CINC-COVINGTON CLOUDY    18  10  71 S6        29.93F WCI  10
CINC-LUNKEN    CLOUDY    20  10  65 S6        29.98S WCI  12
HAMILTON       CLOUDY    19  12  74 CALM      29.96S
DAYTON         CLOUDY    17  11  77 SW9       29.90F WCI   6
WRIGHT-PAT AFB CLOUDY    18  10  69 SW10      29.91F WCI   6
DAYTON GENERAL CLOUDY    17   9  70 SW5       29.91F WCI  10
WILMINGTON     CLOUDY    16  11  80 SW8       29.90F WCI   5
$$

OHZ036-037-039>041-045>050-054>059-063>069-073>076-082>088-131200-
  CENTRAL AND SOUTHEAST OHIO

CITY           SKY/WX    TMP DP  RH WIND       PRES   REMARKS
COLUMBUS       FAIR      18   9  68 W7        29.92R WCI   9
OSU AIRPORT    FAIR      13   7  77 W7        29.91R WCI   3
BOLTON FIELD   FAIR      12   6  77 SW5       29.92S WCI   4
RICKENBACK AFB FAIR      13   8  78 SW5       29.93S WCI   6
NEWARK         CLOUDY    19  10  68 W8        29.91R WCI   9
MARION         NOT AVBL
LANCASTER      MOCLDY    16   8  71 W8        29.93R WCI   5
ZANESVILLE     CLOUDY    20  13  74 SW8       29.90S WCI  10
NEW PHILLY     CLOUDY    18   6  59 W7        29.89S WCI   9
$$




USA.gov is the U.S. government's official web portal to all federal, state and local government web resources and services.